Weather History for Seward, AK

Change the Weather History Date:

Monday, May 20, 2013

  Actual Average Record
Temperature  
Mean Temperature 42 °F -  
Max Temperature 51 °F 53 °F 70 °F (2004)
Min Temperature 33 °F 39 °F 30 °F (1999)
Degree Days  
Heating Degree Days 24    
Moisture  
Dew Point 26 °F    
Average Humidity 53    
Maximum Humidity 78    
Minimum Humidity 28    
Precipitation  
Precipitation 0.00 in - - ()
Sea Level Pressure  
Sea Level Pressure 30.59 in    
Wind  
Wind Speed 9 mph (East)    
Max Wind Speed 14 mph    
Max Gust Speed -    
Visibility 10 miles    
Events      
Averages and records for this station are not official NWS values.
T = Trace of Precipitation, MM = Missing Value Source: NWS Daily Summary

Daily Weather History Graph

Daily Weather History Graph

Search for Another Location

Airport:

Trip Planner

Search our weather history database for the weather conditions in past years. The results will help you decide how hot, cold, wet, or windy it might be!

Date:

Astronomy

May. 20, 2013 Rise Set
Actual Time 5:06 AM AKDT 10:43 PM AKDT
Civil Twilight 3:57 AM AKDT 11:54 PM AKDT
Nautical Twilight 2:26 AM AKDT 1:21 AM AKDT
Astronomical Twilight Sun does not rise Sun does not rise
Moon 4:49 PM AKDT (5/20) 3:28 AM AKDT (5/20)
Length of Visible Light 19h 56m
Length of Day
17h 36m
Waxing Gibbous, 76% of the Moon is Illuminated
May 20
Waxing Gibbous
May 24
Full
May 31
Last Quarter
Jun 8
New
Jun 16
First Quarter

Hourly Weather History & Observations

Time (AKDT) Temp. Windchill Dew Point Humidity Pressure Visibility Wind Dir Wind Speed Gust Speed Precip Events Conditions
12:53 AM 37.9 °F 31.5 °F 21.0 °F 51% 30.60 in 10.0 mi North 9.2 mph - N/A   Clear
1:53 AM 36.0 °F 29.0 °F 21.0 °F 55% 30.60 in 10.0 mi North 9.2 mph - N/A   Clear
2:53 AM 36.0 °F 27.5 °F 21.0 °F 55% 30.61 in 10.0 mi North 12.7 mph - N/A   Clear
3:53 AM 35.1 °F 26.4 °F 21.9 °F 59% 30.63 in 10.0 mi North 12.7 mph - N/A   Clear
4:53 AM 34.0 °F 24.6 °F 21.0 °F 59% 30.62 in 10.0 mi North 13.8 mph - N/A   Clear
5:53 AM 33.1 °F 23.4 °F 21.9 °F 64% 30.63 in 10.0 mi North 13.8 mph - N/A   Clear
6:53 AM 36.0 °F 28.0 °F 21.9 °F 57% 30.62 in 10.0 mi North 11.5 mph - N/A   Clear
7:53 AM 37.9 °F 30.9 °F 21.9 °F 53% 30.62 in 10.0 mi North 10.4 mph - N/A   Clear
8:53 AM 43.0 °F 38.2 °F 21.0 °F 42% 30.62 in 10.0 mi North 8.1 mph - N/A   Clear
9:53 AM 46.0 °F 41.4 °F 19.0 °F 34% 30.61 in 10.0 mi NE 9.2 mph - N/A   Clear
10:53 AM 48.9 °F - 17.1 °F 28% 30.61 in 10.0 mi Calm Calm - N/A   Clear
11:53 AM 48.9 °F - 21.9 °F 35% 30.60 in 10.0 mi South 5.8 mph - N/A   Clear
12:53 PM 48.9 °F - 23.0 °F 36% 30.61 in 10.0 mi South 9.2 mph - N/A   Clear
1:53 PM 48.9 °F - 28.0 °F 44% 30.60 in 10.0 mi South 8.1 mph - N/A   Clear
2:53 PM 50.0 °F - 27.0 °F 41% 30.59 in 10.0 mi South 6.9 mph - N/A   Clear
3:53 PM 48.9 °F - 30.0 °F 48% 30.59 in 10.0 mi South 10.4 mph - N/A   Clear
4:53 PM 48.0 °F - 35.1 °F 61% 30.58 in 10.0 mi South 10.4 mph - N/A   Clear
5:53 PM 48.0 °F - 32.0 °F 54% 30.58 in 10.0 mi SSW 10.4 mph - N/A   Clear
6:53 PM 48.0 °F - 28.9 °F 48% 30.57 in 10.0 mi South 9.2 mph - N/A   Clear
7:53 PM 46.9 °F - 30.9 °F 54% 30.56 in 10.0 mi South 8.1 mph - N/A   Clear
8:53 PM 45.0 °F 42.6 °F 34.0 °F 65% 30.55 in 10.0 mi SE 4.6 mph - N/A   Clear
9:53 PM 42.1 °F 39.2 °F 33.1 °F 70% 30.55 in 10.0 mi SE 4.6 mph - N/A   Clear
10:53 PM 39.9 °F - 30.9 °F 70% 30.55 in 10.0 mi Calm Calm - N/A   Clear
11:53 PM 35.1 °F 32.2 °F 28.9 °F 78% 30.55 in 10.0 mi North 3.5 mph - N/A   Clear